Wind_Speed
56 56 55 54 53 53 52 52 52 51 51 51 51 52 52 52 52 51 51 51 51 51 51 52 52 53 54 55 56 57 58 59 61 62 63 65 66 67 68 69 70 70 71
57 56 55 54 53 52 52 51 52 52 52 52 52 52 52 52 53 53 52 52 52 52 53 53 53 54 55 56 57 59 60 61 63 64 65 67 68 69 70 70 71 72 73
55 54 53 52 51 51 51 51 51 51 52 52 52 53 53 53 53 53 53 53 53 54 54 54 55 56 56 58 59 61 62 64 65 66 67 69 70 71 71 72 73 73 74
53 52 51 50 50 50 50 50 51 51 52 52 53 53 53 54 54 54 54 54 54 55 56 56 57 58 59 60 62 63 64 66 66 68 69 70 71 72 73 73 74 74 75
52 51 50 50 50 50 50 51 52 53 53 53 53 54 54 54 55 55 55 56 56 57 57 58 59 59 61 62 64 65 66 67 68 69 71 72 73 73 74 75 75 76 76
54 53 53 52 52 52 52 53 53 53 54 54 54 55 55 56 56 57 57 57 58 58 59 60 61 61 62 63 65 66 67 68 69 71 72 72 73 74 75 76 77 77 77
58 57 57 57 56 56 56 56 56 56 56 56 56 57 57 58 58 59 59 60 60 61 61 61 62 63 64 65 66 66 67 69 70 72 72 73 74 75 76 77 78 77 77
62 62 62 62 61 60 60 59 59 59 59 59 59 59 59 60 60 61 61 62 62 63 63 63 63 64 65 66 67 67 68 70 71 73 73 75 76 77 77 77 77 77 77
66 65 65 65 65 65 64 63 62 62 62 61 61 61 61 62 63 63 64 64 64 64 64 64 64 65 65 65 66 67 68 70 71 73 73 74 75 76 76 76 76 77 76
70 69 69 68 68 68 67 66 66 65 64 63 63 63 64 64 64 65 65 65 65 65 65 65 65 66 66 67 67 68 68 69 71 72 72 73 74 75 75 75 75 75 76
73 72 71 70 69 69 69 68 68 67 66 65 65 65 65 65 65 65 65 64 65 65 65 65 66 66 67 67 67 68 68 70 70 70 71 71 72 72 72 72 72 73 74
73 73 73 72 71 70 70 70 70 69 68 67 66 66 65 65 65 65 64 64 64 64 64 64 66 67 67 67 67 67 68 69 69 69 70 70 70 70 69 70 70 72 74
73 73 73 73 72 72 72 71 70 69 68 67 67 66 66 65 64 64 64 64 63 63 64 65 66 66 65 65 65 65 66 67 67 67 68 68 68 68 68 69 70 72 73
74 74 73 72 71 70 69 68 66 65 65 64 64 64 64 64 63 63 63 62 62 62 62 63 63 63 64 64 64 65 65 65 65 66 66 66 67 68 68 70 71 71 72
70 69 68 67 67 66 64 63 62 61 61 61 61 61 61 61 60 60 60 59 59 60 61 61 62 63 63 64 64 64 63 64 64 64 64 65 66 67 68 69 70 71 72
66 65 64 64 63 62 61 61 61 60 60 60 60 59 59 59 59 58 59 59 59 60 61 61 62 62 62 62 62 62 62 63 63 64 65 65 66 67 68 70 71 72 73
64 63 62 60 59 59 59 59 59 59 60 60 59 58 57 57 57 57 58 58 59 60 60 60 60 60 61 61 62 62 62 62 63 64 64 65 67 68 69 70 71 72 74
61 60 59 59 58 57 56 56 57 57 57 56 56 55 55 55 56 57 58 58 59 59 59 58 59 59 60 60 61 61 62 62 63 64 65 66 68 69 70 71 72 73 74
57 56 55 55 55 55 54 55 55 54 54 55 55 55 56 56 57 57 57 57 58 58 58 58 59 59 60 60 61 61 62 63 64 66 67 68 69 71 72 73 74 75 75
55 54 54 54 54 53 53 53 53 53 53 54 54 54 55 56 56 56 57 57 58 58 59 59 59 60 60 61 62 63 64 65 66 68 69 71 72 74 75 76 76 76 75
52 52 53 53 52 52 52 52 53 53 53 53 54 54 55 55 56 57 57 57 57 58 58 59 59 60 61 62 63 65 66 68 69 71 72 74 75 77 77 77 76 75 74
51 50 50 50 50 50 50 51 51 52 52 53 53 54 55 55 56 56 57 57 58 58 59 59 60 62 63 65 66 68 70 71 73 74 76 77 78 78 77 76 75 74 72
47 47 48 48 48 48 49 50 50 51 52 53 53 54 55 55 56 57 58 58 59 60 61 62 63 65 67 69 70 72 73 75 77 78 79 80 79 77 76 75 73 71 69
46 46 47 47 47 48 48 49 50 51 52 53 53 54 55 56 57 58 59 60 61 63 64 66 68 69 71 73 74 76 78 79 80 80 80 78 77 75 73 72 69 67 64
45 46 46 47 47 47 48 49 50 52 53 54 55 56 57 58 59 60 61 63 64 66 68 70 72 73 75 77 79 80 81 81 80 79 78 76 73 71 69 67 65 62 59
44 44 45 46 47 47 48 50 51 52 53 55 56 58 59 61 62 64 65 67 69 70 72 74 76 78 80 81 81 81 80 79 78 76 74 72 69 67 65 62 60 57 54
Wind_Direction
281 283 284 284 284 283 282 281 280 279 279 279 278 279 279 280 280 281 281 282 282 282 282 283 283 283 284 285 286 286 288 289 290 291 292 294 295 296 297 298 299 299 300
280 281 281 281 282 282 281 279 278 278 278 278 278 279 279 280 280 281 281 282 282 282 282 282 283 283 284 284 285 287 288 290 290 291 292 293 294 296 297 297 298 299 300
280 280 280 280 280 279 279 278 277 277 277 278 279 280 280 280 281 281 281 282 282 282 282 283 283 283 284 285 285 287 288 289 290 291 292 293 294 295 296 296 297 298 299
279 279 279 278 278 278 278 277 277 277 278 278 279 279 280 280 280 281 281 281 282 282 283 283 284 284 285 285 286 287 288 289 290 291 292 292 293 293 294 295 296 298 299
279 278 278 278 278 278 277 277 277 277 278 278 279 279 280 280 280 281 281 281 282 282 283 284 284 285 285 286 287 288 288 289 290 290 291 291 292 292 293 294 295 297 298
279 279 278 278 278 278 278 278 278 278 278 279 279 279 280 280 280 280 281 281 282 283 283 284 284 285 285 286 286 287 288 288 289 289 289 290 290 291 292 294 295 296 298
279 279 279 279 279 279 279 279 279 279 279 279 279 279 280 280 280 280 281 281 282 283 283 283 284 285 285 285 286 286 287 287 287 287 288 289 289 290 292 293 295 297 299
278 279 280 280 280 280 280 280 280 280 280 279 279 279 279 279 280 280 280 281 281 282 282 283 283 284 284 285 285 285 285 285 286 287 288 288 289 290 292 293 295 297 298
278 278 279 280 281 281 281 280 280 280 280 280 279 279 279 279 280 280 280 280 281 281 282 282 282 283 283 283 283 283 283 284 284 286 287 288 289 291 292 293 295 297 299
278 279 279 280 281 281 281 281 280 280 280 280 280 280 280 280 280 280 280 280 280 280 281 281 282 282 281 282 282 282 282 283 284 285 287 288 289 291 292 294 296 298 299
277 278 279 280 280 280 281 281 280 280 280 280 279 280 280 279 279 280 280 280 280 280 280 281 281 281 281 281 281 281 282 282 283 285 287 288 289 291 293 294 296 298 300
278 278 278 279 279 279 280 280 280 279 279 279 279 279 279 279 279 279 279 278 279 279 279 279 279 279 280 281 281 282 282 283 284 285 286 288 289 291 293 295 297 299 301
278 278 279 279 279 279 279 279 278 278 278 278 278 278 277 277 277 277 277 277 278 278 278 278 278 279 280 281 282 283 283 284 285 285 287 288 290 292 293 295 297 299 301
278 278 278 278 278 278 278 277 277 277 277 277 277 277 276 275 276 276 276 276 277 277 278 278 279 280 280 281 282 283 284 285 285 287 288 289 291 292 294 296 298 300 302
277 277 276 276 275 275 275 275 275 276 276 276 275 275 275 275 275 276 277 277 278 278 279 279 280 281 282 283 283 284 285 286 287 288 290 291 293 294 296 298 299 301 302
274 273 273 273 273 273 273 273 274 275 275 275 275 275 275 275 276 277 278 278 279 279 280 281 282 282 283 283 284 285 286 287 289 290 292 293 294 295 297 299 300 301 303
270 271 271 271 271 272 273 273 274 274 275 275 275 275 276 277 278 278 279 280 281 282 282 282 283 283 284 285 286 287 288 289 291 292 292 293 295 296 298 299 301 302 303
269 270 270 271 271 272 273 273 274 274 275 275 276 277 278 279 280 281 282 283 282 282 283 283 284 285 286 287 287 288 289 290 291 292 293 294 296 297 299 300 301 302 303
269 271 271 272 272 272 273 273 274 275 276 277 278 280 281 281 282 283 283 283 284 284 285 285 286 287 287 288 289 290 290 291 292 293 294 295 296 298 299 300 301 301 302
270 271 271 273 274 274 274 275 276 277 278 278 279 280 281 282 282 282 283 283 284 285 286 286 287 288 289 290 290 291 291 292 292 293 294 296 297 298 299 300 300 300 300
271 271 272 273 273 274 275 276 277 277 278 279 280 281 282 283 283 283 284 284 285 286 287 288 289 289 290 290 291 291 292 292 293 294 295 296 297 298 298 299 299 299 299
270 271 271 271 273 274 275 276 276 277 279 280 281 281 282 283 283 284 285 286 287 287 288 288 289 289 290 291 291 292 292 293 294 294 295 296 296 297 297 297 297 297 297
269 270 272 272 273 274 275 276 278 279 280 280 281 282 283 284 285 286 286 287 287 288 289 289 290 290 291 291 292 292 293 293 294 294 295 295 296 295 295 295 294 294 295
271 272 273 274 274 276 276 277 278 279 281 282 283 284 285 285 286 286 287 288 288 289 290 290 290 291 291 292 292 293 293 294 294 294 294 294 294 294 293 293 293 293 293
273 273 274 275 276 277 278 279 280 281 282 283 284 284 285 286 286 287 288 289 289 290 290 291 291 292 292 293 293 293 294 293 293 293 293 292 292 292 291 291 290 290 290
273 273 275 276 278 279 279 280 281 282 283 284 285 286 286 287 288 289 289 290 290 291 291 292 292 292 293 293 293 293 293 293 292 292 291 291 290 289 289 288 288 288 288
Height
5757 5755 5753 5751 5749 5746 5744 5741 5739 5736 5734 5732 5729 5727 5724 5722 5719 5717 5714 5712 5709 5707 5704 5702 5699 5697 5693 5690 5687 5685 5682 5678 5675 5671 5666 5661 5656 5651 5646 5641 5636 5630 5624
5743 5741 5739 5737 5735 5733 5730 5728 5725 5723 5720 5718 5716 5713 5711 5709 5706 5704 5701 5699 5696 5694 5691 5688 5686 5683 5680 5677 5674 5670 5667 5664 5660 5656 5652 5646 5641 5636 5631 5626 5620 5614 5608
5728 5727 5725 5723 5721 5719 5716 5714 5712 5709 5707 5705 5702 5700 5698 5695 5693 5690 5688 5685 5683 5680 5677 5674 5672 5669 5666 5663 5659 5656 5652 5649 5645 5641 5636 5631 5625 5620 5615 5610 5604 5598 5592
5713 5712 5710 5708 5707 5705 5703 5700 5698 5696 5694 5691 5689 5687 5684 5682 5679 5676 5674 5671 5669 5666 5663 5660 5658 5655 5652 5648 5644 5641 5637 5633 5629 5625 5620 5615 5609 5604 5599 5593 5588 5582 5576
5697 5697 5695 5694 5692 5691 5689 5687 5684 5682 5680 5678 5676 5673 5671 5668 5665 5662 5660 5657 5654 5652 5649 5646 5643 5640 5636 5633 5629 5625 5621 5617 5613 5608 5603 5598 5593 5587 5582 5576 5572 5566 5560
5682 5681 5680 5678 5677 5676 5674 5672 5670 5668 5666 5664 5662 5659 5657 5654 5651 5648 5645 5642 5640 5637 5634 5631 5628 5624 5621 5617 5613 5609 5605 5600 5596 5591 5586 5581 5576 5570 5565 5559 5554 5549 5545
5666 5665 5664 5662 5662 5660 5659 5657 5655 5653 5651 5649 5647 5644 5642 5639 5636 5633 5630 5627 5625 5622 5619 5615 5612 5608 5604 5600 5596 5592 5588 5583 5579 5574 5569 5565 5558 5553 5547 5542 5536 5530 5525
5650 5648 5647 5645 5644 5643 5642 5641 5639 5637 5635 5633 5631 5628 5626 5623 5620 5617 5614 5611 5608 5605 5602 5599 5595 5591 5587 5583 5579 5575 5570 5566 5561 5556 5552 5547 5541 5535 5529 5524 5517 5512 5507
5633 5631 5630 5628 5627 5626 5624 5623 5621 5619 5617 5615 5613 5611 5609 5606 5603 5600 5597 5594 5591 5588 5585 5582 5578 5574 5570 5565 5562 5557 5553 5548 5543 5538 5534 5529 5523 5517 5511 5505 5499 5492 5489
5614 5613 5612 5610 5609 5607 5605 5604 5602 5600 5599 5597 5595 5593 5590 5587 5584 5581 5579 5577 5574 5571 5568 5564 5560 5556 5552 5548 5544 5540 5535 5530 5525 5521 5517 5512 5506 5500 5493 5487 5480 5473 5467
5595 5594 5593 5591 5590 5588 5586 5585 5583 5581 5579 5577 5575 5573 5571 5568 5565 5563 5560 5558 5556 5552 5549 5546 5541 5537 5533 5529 5526 5522 5517 5512 5508 5504 5500 5495 5489 5483 5476 5469 5462 5455 5448
5575 5574 5573 5572 5570 5569 5567 5565 5563 5561 5560 5558 5556 5554 5551 5549 5546 5543 5541 5540 5537 5534 5531 5527 5523 5519 5515 5511 5507 5503 5498 5494 5490 5486 5482 5477 5472 5466 5460 5453 5445 5438 5431
5555 5554 5552 5551 5549 5548 5546 5545 5543 5541 5539 5537 5536 5534 5532 5529 5527 5524 5522 5520 5518 5515 5512 5508 5504 5500 5496 5493 5489 5485 5480 5476 5472 5468 5464 5460 5454 5449 5443 5436 5429 5422 5415
5534 5533 5532 5530 5529 5527 5526 5524 5522 5521 5519 5517 5516 5514 5512 5510 5508 5506 5503 5501 5499 5496 5493 5490 5486 5482 5479 5475 5471 5467 5462 5458 5454 5450 5446 5441 5436 5431 5425 5419 5412 5405 5398
5513 5512 5511 5509 5508 5507 5506 5504 5503 5502 5500 5498 5497 5495 5492 5491 5489 5487 5485 5482 5480 5478 5475 5471 5468 5465 5461 5457 5453 5449 5445 5440 5436 5432 5427 5423 5418 5413 5407 5401 5394 5387 5380
5493 5492 5491 5490 5489 5488 5487 5486 5484 5483 5482 5480 5478 5476 5474 5472 5470 5468 5466 5464 5461 5459 5456 5453 5450 5446 5443 5439 5436 5432 5427 5423 5418 5413 5409 5404 5399 5394 5388 5382 5375 5368 5361
5473 5473 5472 5471 5470 5469 5468 5467 5466 5465 5463 5461 5460 5458 5456 5454 5452 5450 5448 5445 5443 5440 5438 5434 5431 5428 5425 5421 5417 5414 5410 5405 5400 5396 5391 5386 5381 5375 5369 5363 5356 5349 5342
5455 5454 5454 5453 5452 5451 5450 5449 5448 5447 5445 5443 5442 5440 5438 5436 5434 5432 5430 5427 5425 5422 5419 5416 5413 5410 5407 5403 5399 5396 5392 5387 5383 5378 5373 5368 5362 5356 5350 5344 5337 5330 5323
5437 5437 5436 5435 5435 5434 5433 5432 5430 5429 5428 5426 5425 5423 5421 5419 5416 5414 5412 5410 5407 5404 5402 5398 5395 5392 5388 5385 5381 5377 5373 5369 5364 5360 5354 5349 5343 5337 5330 5324 5317 5310 5303
5420 5420 5419 5419 5418 5417 5416 5415 5414 5413 5411 5409 5408 5406 5404 5402 5399 5397 5394 5392 5389 5387 5384 5381 5377 5373 5370 5366 5362 5358 5354 5349 5345 5340 5335 5329 5323 5317 5310 5303 5296 5290 5283
5404 5404 5403 5402 5402 5401 5400 5399 5397 5396 5394 5393 5391 5389 5387 5385 5382 5380 5377 5374 5371 5368 5365 5362 5359 5355 5351 5347 5343 5338 5334 5329 5324 5319 5314 5308 5302 5295 5289 5282 5275 5269 5263
5389 5388 5388 5387 5386 5385 5384 5382 5381 5379 5378 5376 5374 5372 5370 5368 5365 5363 5360 5357 5354 5350 5347 5344 5340 5336 5332 5327 5323 5318 5313 5308 5303 5297 5292 5286 5279 5273 5266 5260 5254 5248 5242
5373 5373 5372 5371 5370 5369 5368 5367 5365 5363 5362 5360 5358 5356 5353 5351 5348 5345 5342 5339 5336 5332 5328 5325 5321 5316 5311 5306 5301 5296 5291 5285 5279 5274 5268 5262 5256 5250 5244 5238 5233 5228 5223
5358 5358 5357 5356 5355 5354 5353 5351 5349 5348 5346 5344 5342 5339 5336 5333 5330 5327 5324 5321 5317 5313 5309 5304 5300 5295 5289 5284 5278 5272 5267 5261 5255 5249 5243 5238 5232 5227 5222 5217 5212 5208 5204
5344 5343 5342 5341 5340 5339 5337 5336 5334 5332 5330 5327 5325 5322 5319 5316 5312 5309 5305 5301 5297 5292 5287 5282 5277 5271 5266 5260 5254 5248 5242 5236 5230 5224 5219 5214 5209 5205 5200 5196 5192 5188 5185
5330 5329 5328 5327 5326 5324 5322 5320 5318 5316 5313 5310 5307 5304 5301 5297 5293 5289 5285 5281 5276 5271 5265 5259 5253 5247 5241 5235 5229 5223 5216 5210 5205 5200 5195 5191 5187 5183 5179 5176 5173 5170 5168